Regional Weather Roundup
Issued by NWS

Home | Current Version | Previous Version | Graphics & Text | Print | Product List | Glossary On
Versions: 1 2 3 4 5 6 7 8 9 10 11 12 13 14 15 16 17 18 19 20 21 22 23 24 25 26 27 28 29 30 31 32 33 34 35 36 37 38 39 40 41 42 43 44 45 46 47 48 49 50
000
ASUS43 KLMK 011602
RWRKY
KENTUCKY REGIONAL WEATHER ROUNDUP
NATIONAL WEATHER SERVICE LOUISVILLE KY
1200 PM EDT SAT OCT 01 2016

NOTE "FAIR" INDICATES FEW OR NO CLOUDS BELOW 12,000 FEET
WITH NO SIGNIFICANT WEATHER AND/OR OBSTRUCTIONS TO VISIBILITY.

KYZ001>023-026-027-061>063-070>075-011700-
WESTERN AND SOUTH CENTRAL KENTUCKY

CITY           SKY/WX    TMP DP  RH WIND       PRES   REMARKS
PADUCAH        CLOUDY    65  60  84 W8        30.07S
HENDERSON      PTSUNNY   64  61  88 SW6       30.02F
OWENSBORO      CLOUDY   N/A N/A N/A SW8       30.04F FOG
HOPKINSVILLE   MOSUNNY   66  60  80 SW14      30.07S
BOWLING GREEN  CLOUDY    65  60  84 W7        30.07S
GLASGOW        NOT AVBL
$$

KYZ024-025-028>034-038-045-046-053-011700-
NORTH CENTRAL KENTUCKY

CITY           SKY/WX    TMP DP  RH WIND       PRES   REMARKS
LOUISVILLE/SDF CLOUDY    62  58  86 S3        30.05S FOG
LOUISVILLE/LOU LGT RAIN  61  58  90 SE3       30.06S FOG
FORT KNOX      CLOUDY    61  61 100 S7        30.03S FOG
$$

KYZ035>037-039>044-047>052-055>060-089>105-011700-
NORTHEAST KENTUCKY

CITY           SKY/WX    TMP DP  RH WIND       PRES   REMARKS
LEXINGTON      CLOUDY    61  56  83 S9        30.08R
COVINGTON      CLOUDY    60  55  83 S3        30.06F
FRANKFORT      CLOUDY    60  56  86 S7        30.06S
$$

KYZ054-064>069-076>088-106>120-011700-
SOUTHEAST KENTUCKY

CITY           SKY/WX    TMP DP  RH WIND       PRES   REMARKS
JACKSON        CLOUDY    59  53  80 CALM      30.11S
LONDON         CLOUDY    59  51  75 S5        30.12S
SOMERSET       CLOUDY    59  55  88 S6        30.12S
MIDDLESBORO    CLOUDY    60  54  79 CALM      30.14S
MONTICELLO     CLOUDY    64  56  75 SE8       30.12S
$$




USA.gov is the U.S. government's official web portal to all federal, state and local government web resources and services.